{"data":{"norad_id":57700,"epoch":"2026-05-25T02:55:20.419104Z","epoch_age_seconds":78587,"freshness":"FRESH","line1":"1 57700U 23129C   26145.12176411  .00001790  00000+0  74549-4 0  9996","line2":"2 57700  43.0033  53.7556 0001602 251.7436 108.3242 15.27589490152145","mean_motion":15.2758949,"eccentricity":0.0001602,"inclination_deg":43.0033,"raan_deg":53.7556,"arg_perigee_deg":251.7436,"mean_anomaly_deg":108.3242,"bstar":7.4549e-5,"rev_number":15214,"period_min":94.266163090714,"perigee_km":481.92152225247,"apogee_km":484.11983717305,"semimajor_km":6861.1576797128,"source":"CELESTRAK","updated_at":"2026-05-25T13:38:18.371322Z"}}